Location: Alphen
(52.1351°N, 4.6549°E)
Time: 01:12:06
(UTC+00:00)

USA 215 - Pass Details

Date: 27 January 2021
Orbit: 1103 x 1105 km, 123.0° (Epoch: 14 February)

Event Time Altitude Azimuth Distance (km) Brightness Sun altitude
Rises 02:49:34 0° 59° (ENE) 3,929 7.0 -42.0°
Reaches altitude 10° 02:52:06 10° 63° (ENE) 2,968 6.2 -41.7°
Enters shadow 02:55:58 38° 77° (ENE) 1,637 4.4 -41.1°
